• In Hungary
  • List of Countries
  • For 7 days
  • Water Temperature
  • Satellite Maps
  • Weather Map
  • News
  • Weather Widgets
  • user-avatar
    Login

    Hourly Weather Yampol

    Today, 23 September, Sunday

    Time Temperature Precipitation Wind Pressure Humidity
    00:00 +14°C° 0.3 mm 5 mps 743 mmHg 78%
    01:00 +13°C° 0.3 mm 6 mps 743 mmHg 81%
    02:00 +10°C° 0.3 mm 6 mps 743 mmHg 85%
    03:00 +9°C° 1.1 mm 6 mps 743 mmHg 86%
    04:00 +9°C° 1.1 mm 5 mps 744 mmHg 87%
    05:00 +8°C° 1.1 mm 5 mps 744 mmHg 88%
    06:00 +8°C° 0 mm 4 mps 744 mmHg 86%
    07:00 +10°C° 0 mm 4 mps 744 mmHg 84%
    08:00 +10°C° 0 mm 4 mps 745 mmHg 82%
    09:00 +11°C° 0 mm 4 mps 745 mmHg 78%
    10:00 +12°C° 0 mm 4 mps 745 mmHg 75%
    11:00 +12°C° 0 mm 4 mps 745 mmHg 72%
    12:00 +13°C° 0 mm 4 mps 745 mmHg 67%
    13:00 +14°C° 0 mm 4 mps 745 mmHg 63%
    14:00 +15°C° 0 mm 4 mps 745 mmHg 58%
    15:00 +15°C° 0 mm 4 mps 745 mmHg 61%
    16:00 +14°C° 0 mm 3 mps 745 mmHg 64%
    17:00 +14°C° 0 mm 2 mps 745 mmHg 67%
    18:00 +13°C° 0 mm 2 mps 745 mmHg 70%
    19:00 +12°C° 0 mm 2 mps 745 mmHg 72%
    20:00 +10°C° 0 mm 2 mps 745 mmHg 75%
    21:00 +10°C° 0 mm 2 mps 745 mmHg 76%
    22:00 +9°C° 0 mm 2 mps 745 mmHg 76%
    23:00 +9°C° 0 mm 2 mps 745 mmHg 76%

    Tomorrow, 24 September, Monday

    Time Temperature Precipitation Wind Pressure Humidity
    00:00 +9°C° 0 mm 3 mps 745 mmHg 77%
    01:00 +9°C° 0 mm 3 mps 745 mmHg 77%
    02:00 +8°C° 0 mm 3 mps 745 mmHg 78%
    03:00 +9°C° 0 mm 3 mps 744 mmHg 76%
    04:00 +9°C° 0 mm 3 mps 744 mmHg 75%
    05:00 +10°C° 0 mm 4 mps 743 mmHg 73%
    06:00 +10°C° 0.4 mm 4 mps 742 mmHg 74%
    07:00 +9°C° 0.4 mm 5 mps 742 mmHg 76%
    08:00 +9°C° 0.4 mm 6 mps 741 mmHg 77%
    09:00 +9°C° 1.7 mm 7 mps 740 mmHg 79%
    10:00 +9°C° 1.7 mm 8 mps 739 mmHg 81%
    11:00 +10°C° 1.7 mm 9 mps 738 mmHg 83%
    12:00 +10°C° 2.1 mm 9 mps 737 mmHg 84%
    13:00 +11°C° 2.1 mm 10 mps 736 mmHg 86%
    14:00 +11°C° 2.1 mm 10 mps 734 mmHg 87%
    15:00 +12°C° 1.2 mm 9 mps 734 mmHg 87%
    16:00 +12°C° 1.2 mm 9 mps 733 mmHg 88%
    17:00 +12°C° 1.2 mm 9 mps 733 mmHg 88%
    18:00 +11°C° 0.1 mm 8 mps 733 mmHg 87%
    19:00 +10°C° 0.1 mm 8 mps 734 mmHg 85%
    20:00 +9°C° 0.1 mm 8 mps 735 mmHg 84%
    21:00 +9°C° 0 mm 8 mps 736 mmHg 84%
    22:00 +8°C° 0 mm 7 mps 736 mmHg 83%
    23:00 +8°C° 0 mm 6 mps 737 mmHg 83%

    Day after tomorrow, 25 September, Tuesday

    Time Temperature Precipitation Wind Pressure Humidity
    00:00 +7°C° 0 mm 6 mps 737 mmHg 85%
    01:00 +7°C° 0 mm 6 mps 738 mmHg 87%
    02:00 +6°C° 0 mm 5 mps 738 mmHg 89%
    03:00 +6°C° 0 mm 5 mps 739 mmHg 89%
    04:00 +6°C° 0 mm 5 mps 739 mmHg 89%
    05:00 +6°C° 0 mm 5 mps 739 mmHg 90%
    06:00 +6°C° 0 mm 5 mps 740 mmHg 86%
    07:00 +7°C° 0 mm 5 mps 740 mmHg 83%
    08:00 +7°C° 0 mm 6 mps 741 mmHg 80%
    09:00 +7°C° 0 mm 6 mps 742 mmHg 75%
    10:00 +8°C° 0 mm 6 mps 742 mmHg 71%
    11:00 +8°C° 0 mm 6 mps 743 mmHg 66%
    12:00 +9°C° 0 mm 7 mps 743 mmHg 64%
    13:00 +9°C° 0 mm 7 mps 744 mmHg 61%
    14:00 +10°C° 0 mm 7 mps 744 mmHg 58%
    15:00 +9°C° 0.1 mm 6 mps 745 mmHg 62%
    16:00 +8°C° 0.1 mm 5 mps 745 mmHg 65%
    17:00 +7°C° 0.1 mm 4 mps 745 mmHg 68%
    18:00 +6°C° 0 mm 4 mps 746 mmHg 72%
    19:00 +5°C° 0 mm 4 mps 747 mmHg 77%
    20:00 +4°C° 0 mm 4 mps 747 mmHg 81%
    21:00 +4°C° 0 mm 4 mps 748 mmHg 80%
    22:00 +4°C° 0 mm 4 mps 748 mmHg 80%
    23:00 +4°C° 0 mm 4 mps 749 mmHg 79%

    26 September, Wednesday

    Time Temperature Precipitation Wind Pressure Humidity
    00:00 +4°C° 0 mm 4 mps 749 mmHg 80%
    01:00 +3°C° 0 mm 4 mps 750 mmHg 82%
    02:00 +3°C° 0 mm 4 mps 750 mmHg 84%
    03:00 +3°C° 0 mm 4 mps 751 mmHg 85%
    04:00 +1°C° 0 mm 4 mps 752 mmHg 86%
    05:00 +1°C° 0 mm 4 mps 752 mmHg 87%
    06:00 +1°C° 0 mm 4 mps 753 mmHg 81%
    07:00 +2°C° 0 mm 5 mps 754 mmHg 75%
    08:00 +3°C° 0 mm 5 mps 754 mmHg 69%
    09:00 +5°C° 0 mm 5 mps 755 mmHg 62%
    10:00 +7°C° 0 mm 5 mps 755 mmHg 55%
    11:00 +8°C° 0 mm 5 mps 755 mmHg 49%
    12:00 +9°C° 0 mm 5 mps 755 mmHg 47%
    13:00 +10°C° 0 mm 4 mps 755 mmHg 46%
    14:00 +11°C° 0 mm 4 mps 755 mmHg 45%
    15:00 +10°C° 0 mm 3 mps 755 mmHg 51%
    16:00 +9°C° 0 mm 3 mps 755 mmHg 56%
    17:00 +8°C° 0 mm 2 mps 755 mmHg 62%
    18:00 +7°C° 0 mm 2 mps 755 mmHg 65%
    19:00 +6°C° 0 mm 2 mps 755 mmHg 68%
    20:00 +5°C° 0 mm 2 mps 755 mmHg 71%
    21:00 +4°C° 0 mm 3 mps 755 mmHg 71%
    22:00 +4°C° 0 mm 3 mps 755 mmHg 70%
    23:00 +4°C° 0 mm 3 mps 754 mmHg 70%

    27 September, Thursday

    Time Temperature Precipitation Wind Pressure Humidity
    00:00 +4°C° 0 mm 4 mps 754 mmHg 69%
    01:00 +4°C° 0 mm 4 mps 753 mmHg 68%
    02:00 +3°C° 0 mm 5 mps 753 mmHg 66%
    03:00 +5°C° 0 mm 5 mps 752 mmHg 66%
    04:00 +4°C° 0 mm 6 mps 752 mmHg 65%
    05:00 +5°C° 0 mm 6 mps 751 mmHg 64%
    06:00 +5°C° 0 mm 7 mps 750 mmHg 64%
    07:00 +5°C° 0 mm 7 mps 750 mmHg 64%
    08:00 +6°C° 0 mm 8 mps 749 mmHg 64%
    09:00 +6°C° 0.1 mm 8 mps 749 mmHg 64%
    10:00 +7°C° 0.1 mm 8 mps 748 mmHg 64%
    11:00 +7°C° 0.1 mm 9 mps 748 mmHg 64%
    12:00 +7°C° 0.1 mm 8 mps 748 mmHg 67%
    13:00 +7°C° 0.1 mm 8 mps 747 mmHg 71%
    14:00 +7°C° 0.1 mm 8 mps 747 mmHg 74%
    15:00 +9°C° 0 mm 7 mps 746 mmHg 76%
    16:00 +9°C° 0 mm 7 mps 746 mmHg 78%
    17:00 +9°C° 0 mm 6 mps 746 mmHg 79%
    18:00 +9°C° 0 mm 6 mps 746 mmHg 81%
    19:00 +9°C° 0 mm 6 mps 746 mmHg 83%
    20:00 +9°C° 0 mm 5 mps 746 mmHg 85%
    21:00 +9°C° 0 mm 5 mps 747 mmHg 88%
    22:00 +8°C° 0 mm 5 mps 747 mmHg 90%
    23:00 +8°C° 0 mm 5 mps 747 mmHg 92%

    28 September, Friday

    Time Temperature Precipitation Wind Pressure Humidity
    00:00 +8°C° 0 mm 5 mps 747 mmHg 93%
    01:00 +8°C° 0 mm 5 mps 747 mmHg 94%
    02:00 +8°C° 0 mm 4 mps 747 mmHg 94%
    03:00 +8°C° 0 mm 5 mps 747 mmHg 94%
    04:00 +8°C° 0 mm 5 mps 747 mmHg 93%
    05:00 +8°C° 0 mm 5 mps 746 mmHg 93%
    06:00 +9°C° 0 mm 5 mps 746 mmHg 91%
    07:00 +9°C° 0 mm 6 mps 746 mmHg 89%
    08:00 +10°C° 0 mm 6 mps 746 mmHg 87%
    09:00 +11°C° 0 mm 7 mps 746 mmHg 82%
    10:00 +13°C° 0 mm 8 mps 745 mmHg 77%
    11:00 +15°C° 0 mm 9 mps 745 mmHg 72%
    12:00 +15°C° 0 mm 8 mps 745 mmHg 72%
    13:00 +15°C° 0 mm 8 mps 745 mmHg 73%
    14:00 +16°C° 0 mm 8 mps 745 mmHg 73%
    15:00 +15°C° 0.1 mm 7 mps 745 mmHg 76%
    16:00 +15°C° 0.1 mm 6 mps 745 mmHg 78%
    17:00 +15°C° 0.1 mm 5 mps 745 mmHg 81%
    18:00 +14°C° 0.1 mm 5 mps 746 mmHg 84%
    19:00 +13°C° 0.1 mm 4 mps 746 mmHg 87%
    20:00 +12°C° 0.1 mm 3 mps 747 mmHg 90%
    21:00 +12°C° 0 mm 2 mps 747 mmHg 89%
    22:00 +12°C° 0 mm 2 mps 747 mmHg 88%
    23:00 +11°C° 0 mm 1 mps 748 mmHg 87%
    Show more